Mitchell, SD

12:14 PM CST on December 06, 2019 (GMT -0600)
Mitchell Municipal

Weather History for KMHE - May, 2019

Change the Weather History Date:

Tuesday, May 14, 2019

  Actual Average Record
Temperature  
Mean Temperature 66 °F 59 °F  
Max Temperature 82 °F 71 °F 96 °F (1941)
Min Temperature 49 °F 47 °F 28 °F (2004)
Degree Days  
Heating Degree Days 0 7  
Month to date heating degree days 183 124  
Since 1 July heating degree days 7871 7124  
Cooling Degree Days 1 1  
Month to date cooling degree days 1 11  
Year to date cooling degree days 1 13  
Growing Degree Days 14 (Base 50)    
Moisture  
Dew Point 52 °F    
Average Humidity 68    
Maximum Humidity 100    
Minimum Humidity 35    
Precipitation  
Precipitation 0.00 in 0.07 in 2.40 in (1961)
Month to date precipitation 1.76 1.08  
Year to date precipitation 9.34 4.88  
Snow  
Snow 0.00 in - 0.10 in (1924)
Month to date snowfall 0.0  
Since 1 July snowfall 67.6  
Snow Depth 0.00 in    
Sea Level Pressure  
Sea Level Pressure 29.85 in    
Wind  
Wind Speed 6 mph (NNW)    
Max Wind Speed 17 mph    
Max Gust Speed 23 mph    
Visibility 6 miles    
Events Fog    
T = Trace of Precipitation, MM = Missing Value Source: NWS Daily Summary

Daily Weather History Graph

Daily Weather History Graph

Search for Another Location

Airport or City:

Astronomy

May. 14, 2019 Rise Set
Actual Time 6:08 AM CDT 8:49 PM CDT
Civil Twilight 5:34 AM CDT 9:22 PM CDT
Nautical Twilight 4:53 AM CDT 10:04 PM CDT
Astronomical Twilight 4:05 AM CDT 10:52 PM CDT
Moon 4:00 PM CDT (5/14) 4:14 AM CDT (5/14)
Length of Visible Light 15h 47m
Length of Day
14h 41m
Waxing Gibbous, 79% of the Moon is Illuminated
May 14
Waxing Gibbous
May 18
Full
May 26
Last Quarter
Jun 3
New
Jun 10
First Quarter

Hourly Weather History & Observations

Time (CDT) Temp. Heat Index Dew Point Humidity Pressure Visibility Wind Dir Wind Speed Gust Speed Precip Events Conditions
12:53 AM 57.9 °F - 54.0 °F 87% 29.78 in 10.0 mi ESE 13.8 mph - 0.00 in   Mostly Cloudy
1:53 AM 57.0 °F - 53.1 °F 87% 29.75 in 10.0 mi SSE 17.3 mph - N/A   Clear
2:53 AM 55.9 °F - 52.0 °F 87% 29.77 in 9.0 mi SE 8.1 mph - N/A   Clear
3:53 AM 53.1 °F - 50.0 °F 89% 29.79 in 7.0 mi SE 4.6 mph - N/A   Clear
4:53 AM 53.1 °F - 50.0 °F 89% 29.81 in 9.0 mi SW 3.5 mph - N/A   Clear
5:42 AM 51.1 °F - 50.0 °F 96% 29.83 in 1.5 mi Calm Calm - N/A   Clear
5:50 AM 50.0 °F - 48.2 °F 94% 29.83 in 0.5 mi Calm Calm - N/A Fog Fog
5:53 AM 48.9 °F - 48.0 °F 97% 29.82 in 0.5 mi Calm Calm - N/A Fog Fog
6:14 AM 48.9 °F - 46.9 °F 93% 29.83 in 0.2 mi Calm Calm - N/A Fog Fog
6:37 AM 50.0 °F - 48.0 °F 93% 29.84 in 0.8 mi WNW 3.5 mph - N/A   Clear
6:44 AM 51.1 °F - 48.9 °F 92% 29.85 in 1.0 mi NW 3.5 mph - N/A   Clear
6:53 AM 50.0 °F - 48.9 °F 96% 29.85 in 0.8 mi NW 3.5 mph - N/A   Clear
7:02 AM 51.1 °F - 48.9 °F 92% 29.85 in 1.2 mi North 4.6 mph - N/A   Clear
7:10 AM 51.1 °F - 48.9 °F 92% 29.86 in 0.5 mi North 3.5 mph - N/A Fog Fog
7:19 AM 51.1 °F - 48.9 °F 92% 29.86 in 0.2 mi North 3.5 mph - N/A Fog Fog
7:27 AM 53.1 °F - 51.1 °F 93% 29.86 in 1.0 mi North 3.5 mph - N/A   Mist
7:31 AM 54.0 °F - 52.0 °F 93% 29.86 in 2.0 mi Calm Calm - N/A   Partly Cloudy
7:44 AM 55.9 °F - 53.1 °F 90% 29.86 in 4.0 mi NNE 4.6 mph - N/A   Clear
7:53 AM 55.9 °F - 53.1 °F 90% 29.86 in 4.0 mi NE 3.5 mph - N/A   Clear
8:53 AM 60.1 °F - 54.0 °F 80% 29.86 in 7.0 mi North 4.6 mph - N/A   Clear
9:53 AM 63.0 °F - 55.9 °F 78% 29.88 in 10.0 mi North 4.6 mph - N/A   Clear
10:53 AM 68.0 °F - 57.0 °F 68% 29.87 in 10.0 mi NNW 5.8 mph - N/A   Clear
11:53 AM 71.1 °F - 57.0 °F 61% 29.87 in 10.0 mi West 3.5 mph - N/A   Clear
12:53 PM 73.9 °F - 54.0 °F 50% 29.87 in 10.0 mi SW 3.5 mph - N/A   Clear
1:53 PM 78.1 °F - 55.0 °F 45% 29.86 in 10.0 mi Calm Calm - N/A   Clear
2:53 PM 80.1 °F 80.1 °F 55.0 °F 42% 29.84 in 10.0 mi NW 8.1 mph - N/A   Clear
3:53 PM 81.0 °F - 51.1 °F 35% 29.84 in 10.0 mi NW 11.5 mph 20.7 mph N/A   Partly Cloudy
4:53 PM 80.1 °F - 50.0 °F 35% 29.84 in 10.0 mi NNW 12.7 mph 21.9 mph N/A   Clear
5:53 PM 80.1 °F - 51.1 °F 36% 29.85 in 10.0 mi NNW 11.5 mph - N/A   Clear
6:53 PM 78.1 °F - 52.0 °F 40% 29.85 in 10.0 mi North 9.2 mph - N/A   Clear
7:53 PM 73.9 °F - 55.9 °F 53% 29.86 in 10.0 mi NNW 5.8 mph - N/A   Clear
8:53 PM 70.0 °F - 55.9 °F 61% 29.86 in 10.0 mi North 4.6 mph - N/A   Clear
9:53 PM 69.1 °F - 55.0 °F 61% 29.88 in 10.0 mi West 4.6 mph - N/A   Clear
10:53 PM 64.9 °F - 55.0 °F 70% 29.90 in 10.0 mi WSW 3.5 mph - N/A   Clear
11:53 PM 60.1 °F - 55.0 °F 83% 29.91 in 10.0 mi Calm Calm - N/A   Clear